CSZ9326 ZJSY-ZGSZ

Flight info

Callsign CSZ9326
Flight time N/A
Altitude 26600
Route M078S0950 PORAP W222 NUMKU W223 AGTEL W71 LH H81 GYA A599 POU W7 SAREX
Aircraft B738/M-SDE2E3FGHIRWZ/LB1

Departure

Time 2026-04-30 14:08
Airport Sanya Phoenix International Airport (ZJSY)

Arrival

Time N/A
Airport Shenzhen Bao'an International Airport (ZGSZ)
Time Latitude Longitude Altitude Speed Heading
2026-04-30 13:32 18.30865 109.41103 83 ft 0 kts 352°
2026-04-30 13:35 18.30864 109.41103 83 ft 0 kts 352°
2026-04-30 13:51 18.30853 109.41105 88 ft 3 kts 352°
2026-04-30 13:51 18.30834 109.41107 85 ft 3 kts 352°
2026-04-30 13:51 18.30816 109.41110 89 ft 3 kts 352°
2026-04-30 13:51 18.30797 109.41113 87 ft 3 kts 352°
2026-04-30 13:52 18.30781 109.41121 87 ft 3 kts 292°
2026-04-30 13:52 18.30779 109.41133 87 ft 0 kts 261°
2026-04-30 14:00 18.30771 109.41096 87 ft 10 kts 256°
2026-04-30 14:00 18.30755 109.41005 83 ft 14 kts 263°
2026-04-30 14:01 18.30743 109.40907 82 ft 13 kts 262°
2026-04-30 14:01 18.30726 109.40815 82 ft 13 kts 239°
2026-04-30 14:01 18.30645 109.40797 85 ft 12 kts 172°
2026-04-30 14:01 18.30560 109.40810 86 ft 12 kts 172°
2026-04-30 14:02 18.30477 109.40822 82 ft 12 kts 172°
2026-04-30 14:02 18.30409 109.40782 83 ft 12 kts 252°
2026-04-30 14:02 18.30396 109.40693 79 ft 12 kts 261°
2026-04-30 14:02 18.30383 109.40607 75 ft 12 kts 261°
2026-04-30 14:03 18.30371 109.40522 72 ft 11 kts 261°
2026-04-30 14:03 18.30359 109.40440 74 ft 11 kts 261°
2026-04-30 14:03 18.30348 109.40361 75 ft 11 kts 261°
2026-04-30 14:03 18.30340 109.40281 77 ft 11 kts 264°
2026-04-30 14:04 18.30329 109.40194 68 ft 12 kts 261°
2026-04-30 14:04 18.30316 109.40107 76 ft 12 kts 261°
2026-04-30 14:04 18.30304 109.40019 70 ft 13 kts 262°
2026-04-30 14:04 18.30291 109.39910 74 ft 17 kts 262°
2026-04-30 14:05 18.30274 109.39780 73 ft 19 kts 262°
2026-04-30 14:05 18.30258 109.39673 72 ft 8 kts 250°
2026-04-30 14:05 18.30224 109.39633 72 ft 7 kts 208°
2026-04-30 14:05 18.30206 109.39629 72 ft 0 kts 181°
2026-04-30 14:06 18.30189 109.39630 68 ft 3 kts 173°
2026-04-30 14:07 18.30098 109.39650 73 ft 5 kts 140°
2026-04-30 14:07 18.30091 109.39686 71 ft 5 kts 91°
2026-04-30 14:07 18.30094 109.39724 71 ft 5 kts 81°
2026-04-30 14:08 18.30110 109.39835 75 ft 27 kts 82°
2026-04-30 14:08 18.30175 109.40329 71 ft 108 kts 82°
2026-04-30 14:08 18.30455 109.42587 937 ft 168 kts 84°
2026-04-30 14:09 18.30607 109.43803 1858 ft 170 kts 83°
2026-04-30 14:09 18.30768 109.45023 2536 ft 170 kts 82°
2026-04-30 14:09 18.31160 109.47589 3225 ft 196 kts 73°
2026-04-30 14:10 18.31947 109.48853 3460 ft 224 kts 36°
2026-04-30 14:10 18.33344 109.49743 3822 ft 243 kts 31°
2026-04-30 14:10 18.34806 109.50683 3884 ft 250 kts 32°
2026-04-30 14:10 18.36265 109.51685 4538 ft 251 kts 33°
2026-04-30 14:11 18.37711 109.52721 5413 ft 254 kts 34°
2026-04-30 14:11 18.39175 109.53802 6123 ft 260 kts 34°
2026-04-30 14:11 18.40649 109.54914 6967 ft 261 kts 35°
2026-04-30 14:11 18.42116 109.56036 7733 ft 267 kts 35°
2026-04-30 14:12 18.43617 109.57195 8560 ft 269 kts 36°
2026-04-30 14:12 18.45137 109.58376 9310 ft 275 kts 36°
2026-04-30 14:12 18.46680 109.59577 9700 ft 278 kts 36°
2026-04-30 14:12 18.47733 109.60397 9828 ft 279 kts 36°
2026-04-30 14:13 18.49864 109.61921 9826 ft 282 kts 26°
2026-04-30 14:13 18.51688 109.62829 10066 ft 298 kts 22°
2026-04-30 14:13 18.53661 109.63731 10292 ft 322 kts 22°
2026-04-30 14:13 18.55795 109.64704 10493 ft 346 kts 22°
2026-04-30 14:14 18.58053 109.65750 10815 ft 361 kts 23°
2026-04-30 14:14 18.60372 109.66840 11411 ft 367 kts 23°
2026-04-30 14:14 18.62704 109.67949 12111 ft 369 kts 23°
2026-04-30 14:14 18.65051 109.69071 12796 ft 372 kts 23°
2026-04-30 14:15 18.67417 109.70206 13446 ft 376 kts 24°
2026-04-30 14:15 18.69807 109.71353 14063 ft 379 kts 23°
2026-04-30 14:15 18.72220 109.72511 14651 ft 383 kts 23°
2026-04-30 14:15 18.74661 109.73683 15158 ft 388 kts 23°
2026-04-30 14:16 18.77134 109.74869 15709 ft 392 kts 22°
2026-04-30 14:16 18.79630 109.76065 16282 ft 396 kts 22°
2026-04-30 14:16 18.82148 109.77272 16814 ft 399 kts 22°
2026-04-30 14:16 18.84692 109.78493 17338 ft 403 kts 22°
2026-04-30 14:17 18.87258 109.79724 17863 ft 407 kts 22°
2026-04-30 14:17 18.89850 109.80968 18350 ft 412 kts 22°
2026-04-30 14:17 18.92469 109.82227 18778 ft 415 kts 22°
2026-04-30 14:17 18.95107 109.83495 19258 ft 417 kts 22°
2026-04-30 14:18 18.97757 109.84770 19744 ft 420 kts 21°
2026-04-30 14:18 19.00422 109.86051 20177 ft 422 kts 21°
2026-04-30 14:18 19.05808 109.88642 21031 ft 428 kts 21°
2026-04-30 14:19 19.11271 109.91275 21871 ft 434 kts 21°
2026-04-30 14:19 19.14025 109.92603 22300 ft 436 kts 21°
2026-04-30 14:19 19.15855 109.93485 22581 ft 438 kts 21°
2026-04-30 14:20 19.18634 109.94826 22995 ft 440 kts 21°
2026-04-30 14:20 19.21427 109.96173 23386 ft 443 kts 21°
2026-04-30 14:20 19.28007 109.99301 24121 ft 449 kts 19°
2026-04-30 14:21 19.29948 110.00182 24326 ft 450 kts 19°
2026-04-30 14:21 19.32830 110.01490 24726 ft 450 kts 20°
2026-04-30 14:21 19.38477 110.04187 25604 ft 446 kts 21°
2026-04-30 14:22 19.41316 110.05568 25640 ft 453 kts 21°
2026-04-30 14:22 19.47076 110.08315 25670 ft 450 kts 20°
2026-04-30 14:22 19.49934 110.09693 25650 ft 452 kts 21°
2026-04-30 14:23 19.55637 110.12494 25651 ft 452 kts 21°
2026-04-30 14:23 19.61344 110.15279 25645 ft 451 kts 21°
2026-04-30 14:24 19.67058 110.18050 25673 ft 455 kts 21°
2026-04-30 14:24 19.69925 110.19437 25840 ft 461 kts 21°
2026-04-30 14:25 19.75754 110.22262 26630 ft 459 kts 21°
2026-04-30 14:25 19.81607 110.25102 26640 ft 462 kts 21°
2026-04-30 14:26 19.87402 110.27918 26647 ft 458 kts 21°
2026-04-30 14:26 19.90301 110.29326 26656 ft 459 kts 21°
2026-04-30 14:26 19.96118 110.32154 26660 ft 460 kts 21°
2026-04-30 14:27 19.99028 110.33570 26653 ft 460 kts 21°
2026-04-30 14:27 20.01941 110.34987 26649 ft 460 kts 21°
2026-04-30 14:27 20.04863 110.36361 26639 ft 457 kts 16°
2026-04-30 14:28 20.11003 110.37415 26649 ft 443 kts 354°
2026-04-30 14:28 20.14035 110.37040 26646 ft 436 kts 344°
2026-04-30 14:28 20.17002 110.36387 26645 ft 435 kts 343°
2026-04-30 14:28 20.19964 110.35717 26643 ft 435 kts 343°
2026-04-30 14:29 20.25893 110.34407 26658 ft 435 kts 343°
2026-04-30 14:29 20.31835 110.33140 26652 ft 435 kts 344°
2026-04-30 14:30 20.40742 110.31260 26651 ft 435 kts 344°
2026-04-30 14:31 20.46674 110.30005 26651 ft 435 kts 344°
2026-04-30 14:31 20.52675 110.29345 26649 ft 443 kts 358°
2026-04-30 14:31 20.55756 110.29549 26655 ft 444 kts 359°
2026-04-30 14:32 20.61924 110.30046 26651 ft 445 kts 360°
2026-04-30 14:32 20.65007 110.30283 26644 ft 444 kts 359°
2026-04-30 14:32 20.68094 110.30508 26650 ft 444 kts 359°
2026-04-30 14:33 20.71178 110.30722 26646 ft 444 kts 359°
2026-04-30 14:33 20.77340 110.31136 26653 ft 444 kts 359°
2026-04-30 14:33 20.80421 110.31341 26649 ft 443 kts 359°
2026-04-30 14:34 20.83500 110.31547 26657 ft 443 kts 359°
2026-04-30 14:34 20.86579 110.31754 26646 ft 443 kts 359°
2026-04-30 14:34 20.89656 110.31961 26648 ft 443 kts 359°
2026-04-30 14:34 20.92735 110.32168 26655 ft 443 kts 359°
2026-04-30 14:35 20.98887 110.32583 26650 ft 443 kts 359°
2026-04-30 14:35 21.01922 110.32758 26652 ft 443 kts 358°
2026-04-30 14:35 21.04998 110.32900 26648 ft 443 kts 358°
2026-04-30 14:36 21.08075 110.33039 26646 ft 443 kts 358°
2026-04-30 14:36 21.11149 110.33396 26630 ft 449 kts
2026-04-30 14:36 21.14084 110.34597 26655 ft 457 kts 25°
2026-04-30 14:36 21.16678 110.36591 26644 ft 464 kts 41°
2026-04-30 14:37 21.18923 110.39080 26675 ft 465 kts 44°
2026-04-30 14:37 21.21125 110.41623 26642 ft 465 kts 44°
2026-04-30 14:37 21.23326 110.44166 26645 ft 465 kts 44°
2026-04-30 14:37 21.25539 110.46691 26641 ft 464 kts 44°
2026-04-30 14:38 21.27766 110.49200 26637 ft 464 kts 43°
2026-04-30 14:38 21.29998 110.51695 26643 ft 463 kts 43°
2026-04-30 14:38 21.32231 110.54184 26646 ft 463 kts 43°
2026-04-30 14:38 21.34463 110.56674 26645 ft 463 kts 43°
2026-04-30 14:39 21.36691 110.59162 26648 ft 462 kts 43°
2026-04-30 14:39 21.38923 110.61641 26652 ft 462 kts 43°
2026-04-30 14:39 21.41169 110.64113 26648 ft 462 kts 43°
2026-04-30 14:40 21.45667 110.69049 26660 ft 462 kts 43°
2026-04-30 14:40 21.47910 110.71516 26655 ft 462 kts 43°
2026-04-30 14:40 21.50148 110.73982 26646 ft 461 kts 43°
2026-04-30 14:40 21.52383 110.76446 26642 ft 460 kts 43°
2026-04-30 14:41 21.54611 110.78906 26643 ft 459 kts 43°
2026-04-30 14:41 21.56836 110.81364 26637 ft 458 kts 43°
2026-04-30 14:41 21.59060 110.83820 26641 ft 458 kts 43°
2026-04-30 14:41 21.61284 110.86276 26646 ft 458 kts 43°
2026-04-30 14:42 21.63506 110.88732 26651 ft 459 kts 43°
2026-04-30 14:42 21.65701 110.91157 26655 ft 459 kts 43°
2026-04-30 14:42 21.67929 110.93620 26651 ft 460 kts 43°
2026-04-30 14:42 21.70159 110.96087 26652 ft 460 kts 43°
2026-04-30 14:43 21.72390 110.98557 26663 ft 461 kts 43°
2026-04-30 14:43 21.74621 111.01028 26668 ft 460 kts 43°
2026-04-30 14:43 21.76851 111.03500 26655 ft 460 kts 43°
2026-04-30 14:43 21.79079 111.05970 26653 ft 460 kts 43°
2026-04-30 14:44 21.81304 111.08439 26646 ft 459 kts 43°
2026-04-30 14:44 21.83525 111.10905 26646 ft 458 kts 43°
2026-04-30 14:44 21.85737 111.13361 26661 ft 457 kts 43°
2026-04-30 14:44 21.87947 111.15816 26658 ft 457 kts 43°
2026-04-30 14:45 21.90158 111.18273 26655 ft 457 kts 43°
2026-04-30 14:45 21.92366 111.20728 26667 ft 457 kts 43°
2026-04-30 14:45 21.94575 111.23189 26665 ft 457 kts 43°
2026-04-30 14:45 21.96785 111.25651 26670 ft 457 kts 43°
2026-04-30 14:46 21.98987 111.28126 26686 ft 458 kts 44°
2026-04-30 14:46 22.01195 111.30593 26682 ft 456 kts 43°
2026-04-30 14:46 22.03420 111.33028 26669 ft 456 kts 43°
2026-04-30 14:46 22.05661 111.35447 26668 ft 455 kts 42°
2026-04-30 14:47 22.07899 111.37852 26678 ft 454 kts 42°
2026-04-30 14:47 22.10133 111.40256 26669 ft 454 kts 42°
2026-04-30 14:47 22.12337 111.42632 26669 ft 454 kts 42°
2026-04-30 14:47 22.14564 111.45038 26662 ft 453 kts 42°
2026-04-30 14:48 22.16788 111.47446 26672 ft 453 kts 43°
2026-04-30 14:48 22.19011 111.49853 26665 ft 452 kts 42°
2026-04-30 14:48 22.21232 111.52256 26674 ft 452 kts 43°
2026-04-30 14:48 22.23451 111.54666 26661 ft 453 kts 43°
2026-04-30 14:49 22.25668 111.57078 26680 ft 453 kts 43°
2026-04-30 14:49 22.27887 111.59491 26677 ft 453 kts 43°
2026-04-30 14:49 22.30107 111.61904 26669 ft 453 kts 43°
2026-04-30 14:49 22.32327 111.64317 26668 ft 452 kts 43°
2026-04-30 14:50 22.36759 111.69140 26672 ft 452 kts 43°
2026-04-30 14:50 22.38955 111.71574 26662 ft 452 kts 44°
2026-04-30 14:51 22.43316 111.76472 26663 ft 452 kts 44°
2026-04-30 14:51 22.45491 111.78920 26667 ft 452 kts 44°
2026-04-30 14:51 22.49846 111.83814 26664 ft 451 kts 44°
2026-04-30 14:52 22.52020 111.86256 26668 ft 451 kts 44°
2026-04-30 14:52 22.56366 111.91138 26664 ft 450 kts 44°
2026-04-30 14:52 22.58535 111.93578 26664 ft 449 kts 44°
2026-04-30 14:53 22.62865 111.98447 26654 ft 448 kts 44°
2026-04-30 14:53 22.65026 112.00879 26672 ft 448 kts 44°
2026-04-30 14:54 22.69341 112.05751 26662 ft 448 kts 44°
2026-04-30 14:54 22.73646 112.10646 26683 ft 449 kts 44°
2026-04-30 14:55 22.77952 112.15545 26670 ft 449 kts 44°
2026-04-30 14:55 22.80101 112.17989 26675 ft 448 kts 44°
2026-04-30 14:55 22.84364 112.22843 26674 ft 447 kts 44°
2026-04-30 14:56 22.88653 112.27731 26664 ft 447 kts 44°
2026-04-30 14:56 22.92938 112.32620 26661 ft 447 kts 44°
2026-04-30 14:57 22.95078 112.35063 26662 ft 445 kts 44°
2026-04-30 14:57 22.99243 112.39825 26278 ft 427 kts 44°
2026-04-30 14:58 23.03294 112.44456 25449 ft 420 kts 44°
2026-04-30 14:58 23.05206 112.46843 24978 ft 420 kts 55°
2026-04-30 14:58 23.06843 112.52842 24030 ft 420 kts 92°
2026-04-30 14:59 23.06392 112.59133 23046 ft 417 kts 96°
2026-04-30 15:00 23.05682 112.68449 21676 ft 408 kts 95°
2026-04-30 15:00 23.05259 112.74513 20809 ft 403 kts 95°
2026-04-30 15:01 23.04848 112.80543 19937 ft 399 kts 95°
2026-04-30 15:01 23.04709 112.82575 19642 ft 398 kts 95°
2026-04-30 15:01 23.04233 112.89502 18620 ft 394 kts 94°
2026-04-30 15:02 23.04028 112.92465 18160 ft 393 kts 94°
2026-04-30 15:02 23.03824 112.95413 17693 ft 391 kts 94°
2026-04-30 15:03 23.03276 113.03284 16644 ft 370 kts 95°
2026-04-30 15:03 23.02884 113.08882 15711 ft 371 kts 95°
2026-04-30 15:04 23.02492 113.14447 14876 ft 368 kts 95°
2026-04-30 15:04 23.00666 113.22377 13620 ft 361 kts 118°
2026-04-30 15:05 22.97173 113.29526 12342 ft 354 kts 119°
2026-04-30 15:06 22.94896 113.34243 11508 ft 350 kts 118°
2026-04-30 15:06 22.92668 113.38901 10724 ft 345 kts 118°
2026-04-30 15:07 22.90511 113.43412 10371 ft 327 kts 119°
2026-04-30 15:07 22.87890 113.47146 10068 ft 303 kts 153°
2026-04-30 15:08 22.83968 113.48057 9540 ft 286 kts 186°
2026-04-30 15:08 22.78093 113.47587 8643 ft 281 kts 186°
2026-04-30 15:09 22.74211 113.47300 8061 ft 278 kts 186°
2026-04-30 15:09 22.70359 113.47012 7478 ft 277 kts 186°
2026-04-30 15:10 22.66531 113.46728 6898 ft 275 kts 185°
2026-04-30 15:11 22.58961 113.46553 5697 ft 274 kts 158°
2026-04-30 15:11 22.56452 113.49416 5432 ft 260 kts 118°
2026-04-30 15:12 22.54300 113.53854 5139 ft 240 kts 118°
2026-04-30 15:13 22.52745 113.56993 4647 ft 239 kts 118°
2026-04-30 15:14 22.49450 113.63523 3056 ft 257 kts 117°
2026-04-30 15:14 22.47403 113.68772 2537 ft 239 kts 107°
2026-04-30 15:16 22.45015 113.76359 2420 ft 185 kts 108°
2026-04-30 15:17 22.45500 113.81436 2387 ft 185 kts 64°
2026-04-30 15:18 22.49098 113.86685 2206 ft 189 kts 355°
2026-04-30 15:19 22.52673 113.84884 1961 ft 182 kts 336°